Location: Brivio
(45.7333°N, 9.4500°E)
Time: 14:41:58
(UTC+00:00)

Abrixas rocket - Pass Details

Date: 18 October 2019
Orbit: 359 x 367 km, 48.4° (Epoch: 19 November)

Event Time Altitude Azimuth Distance (km) Brightness Sun altitude
Rises 17:56:11 0° 236° (SW) 2,214 6.8 -15.4°
Reaches altitude 10° 17:58:15 10° 231° (SW) 1,367 5.6 -15.8°
Maximum altitude 18:01:15 52° 154° (SSE) 467 2.2 -16.3°
Enters shadow 18:01:39 47° 122° (ESE) 499 2.2 -16.4°
